JCSAT-2B

Last updated on Thu Jul 03 2025 00:02:47 GMT+0000 (Coordinated Universal Time)

1 41471U 16028A 25183.54086146 -.00000158 00000+0 00000+0 0 9990 2 41471 0.0198 29.8769 0001086 85.2189 154.4259 1.00271322 33617
UTC large
Height (km)
Speed (km/s)
/
Latitude / Longitude
Inclination (degrees)
Orbital Period (minutes)
Azimuth
Elevation
Range (km)
Doppler Factor

Next 0 passes for location: London (51.5072 / 0.1276)

Sorry there are no passes over London.